[[{"header":{"parameterUnit":"m.s-1","parameterCategory":1,"la1":30.2991,"la2":30.254,"lo1":-89.0895,"lo2":-89.0444,"dy":0.0017,"dx":0.0017,"nx":28,"ny":28,"refTime":"2025-03-12T21:00:00:Z","depth":0,"parameterNumber":2,"parameterNumberName":"U-component_of_WINDS"},"data":[0,0,0,0,0,0,0,0,0,0,0,0,0,0,0,0,0,0,0,0,0,0,0,0,0,0,0,0,0,0,0,0,0,0,0,0,0,0,0,0,0,0,0,0,0,0,0,0,0,0,0,0,0,0,0,0,0,0,-0.2304,-0.2304,0,-0.2274,-0.2274,-0.2273,-0.2184,-0.2182,-0.218,-0.2178,-0.2149,-0.215,-0.2151,0,0,0,0,0,0,0,0,0,0,0,0,0,-0.2285,-0.2286,-0.2304,-0.2304,-0.2304,-0.2274,-0.2274,-0.2273,-0.2185,-0.2182,-0.218,-0.2178,-0.2149,-0.215,-0.2151,0,0,0,0,0,0,0,0,0,0,0,0,0,-0.2278,-0.2286,-0.2305,-0.2256,-0.2251,-0.2274,-0.2274,-0.2273,-0.2185,-0.2182,-0.2179,-0.2176,-0.2148,-0.215,-0.2151,-0.222,0,0,-0.2156,-0.2157,0,0,0,0,0,0,0,0,-0.2279,-0.2279,-0.2263,-0.2259,-0.2254,-0.223,-0.2256,-0.2255,-0.2186,-0.221,-0.2178,-0.2175,-0.2178,-0.2177,-0.2178,-0.2218,-0.2217,-0.2156,-0.2157,-0.2158,-0.2158,0,0,0,0,0,0,0,-0.2279,-0.228,-0.2292,-0.2263,-0.2258,-0.2235,-0.2231,-0.2255,-0.2211,-0.2208,-0.2201,-0.2199,-0.2175,-0.2177,-0.2177,-0.2216,-0.2156,-0.2157,-0.2158,-0.2159,-0.2308,-0.2311,0,0,0,0,0,0,-0.2287,-0.2281,-0.2293,-0.2292,-0.2259,-0.2238,-0.2233,-0.2241,-0.2211,-0.2203,-0.2201,-0.2195,-0.2176,-0.2175,-0.2175,-0.2251,-0.2158,-0.2159,-0.216,-0.2305,-0.2308,-0.2312,0,0,0,0,0,0,-0.2287,-0.2289,-0.2295,-0.2284,-0.2283,-0.2241,-0.225,-0.2242,-0.2243,-0.2206,-0.2197,-0.2211,-0.2173,-0.2173,-0.2208,-0.2248,-0.216,-0.2161,-0.2301,-0.2306,-0.231,-0.2404,0,0,0,0,0,0,-0.2286,-0.2289,-0.2315,-0.2286,-0.2284,-0.2329,-0.2253,-0.2243,-0.2246,-0.2237,-0.2213,-0.2206,-0.2171,-0.2206,-0.221,-0.2249,-0.2162,-0.2297,-0.2303,-0.2309,-0.2397,-0.2411,-0.2423,0,0,0,0,0,-0.2286,-0.2344,-0.2317,-0.2319,-0.2316,-0.2331,-0.233,-0.2289,-0.2249,-0.2274,-0.225,-0.2207,-0.2244,-0.2211,-0.2214,-0.2254,-0.2295,-0.2302,-0.2308,-0.2391,-0.2408,-0.2423,0,0,0,0,0,0,-0.238,-0.2339,-0.2309,-0.2358,-0.2349,-0.2316,-0.2347,-0.2309,-0.231,-0.2302,-0.2251,-0.2246,-0.2288,-0.2275,-0.2239,-0.2317,-0.2262,-0.227,-0.2324,-0.234,-0.2353,-0.2354,-0.2164,0,0,0,0,0,-0.2406,-0.2422,-0.2386,-0.2433,-0.243,-0.2389,-0.2395,-0.2363,-0.2351,-0.2347,-0.2325,-0.2316,-0.2324,-0.2332,-0.2339,-0.2395,-0.2387,-0.2424,-0.2437,-0.2448,-0.2455,-0.2481,-0.2496,-0.2334,-0.2334,-0.2334,0,0,-0.2461,-0.2441,-0.2454,-0.2451,-0.244,-0.2457,-0.2386,-0.2408,-0.242,-0.235,-0.2381,-0.2365,-0.2351,-0.2396,-0.2415,-0.2387,-0.2498,-0.2457,-0.2466,-0.2467,-0.249,-0.2505,-0.2519,-0.2339,-0.2338,-0.2337,0,0,-0.2569,-0.2556,-0.2593,-0.2582,-0.2566,-0.2538,-0.2547,-0.252,-0.2506,-0.2536,-0.2483,-0.2497,-0.2515,-0.2506,-0.2504,-0.2606,-0.2565,-0.261,-0.2678,-0.2704,-0.2717,-0.2728,-0.2762,-0.2775,-0.2617,-0.2618,-0.2618,0,-0.2639,-0.2663,-0.2617,-0.2641,-0.264,-0.2577,-0.2613,-0.2605,-0.2592,-0.2593,-0.2561,-0.258,-0.2567,-0.2608,-0.2632,-0.2634,-0.2641,-0.2612,-0.2718,-0.2729,-0.2739,-0.277,-0.2784,-0.2623,-0.2622,-0.2622,-0.2621,0,-0.2748,-0.2765,-0.2797,-0.2784,-0.2787,-0.2818,-0.2776,-0.2784,-0.2752,-0.2728,-0.2759,-0.274,-0.274,-0.2748,-0.2718,-0.2784,-0.2766,-0.2728,-0.2671,-0.276,-0.2789,-0.2801,-0.2631,-0.2629,-0.2627,-0.2626,0,0,-0.2915,-0.2875,-0.2887,-0.2879,-0.2855,-0.2867,-0.2894,-0.2893,-0.2901,-0.2894,-0.2914,-0.293,-0.2892,-0.289,-0.2858,-0.2882,-0.2961,-0.2839,-0.2838,-0.286,-0.303,-0.3057,-0.3072,-0.2934,-0.2936,-0.2938,-0.303,0,-0.3015,-0.3057,-0.3016,-0.3066,-0.308,-0.3019,-0.3042,-0.303,-0.3008,-0.3016,-0.2991,-0.3002,-0.2954,-0.2951,-0.2972,-0.2947,-0.2994,-0.294,-0.295,-0.2951,-0.2954,-0.3088,-0.3118,-0.3205,-0.3041,-0.3043,-0.3045,0,-0.3138,-0.3134,-0.3186,-0.3156,-0.316,-0.3181,-0.3176,-0.3185,-0.3169,-0.3151,-0.3148,-0.3108,-0.3131,-0.3077,-0.3108,-0.3072,-0.3074,-0.3062,-0.3064,-0.3062,-0.3002,-0.3087,-0.3233,-0.3245,-0.3062,-0.3061,-0.306,0,-0.3251,-0.3259,-0.329,-0.3286,-0.3253,-0.3268,-0.3256,-0.3237,-0.3238,-0.3234,-0.3234,-0.3233,-0.3232,-0.3232,-0.3193,-0.3158,-0.3228,-0.3171,-0.3212,-0.3213,-0.3228,-0.3227,-0.3374,-0.3234,-0.3233,-0.3233,-0.3233,0,-0.3365,-0.3399,-0.334,-0.3359,-0.3394,-0.3346,-0.3381,-0.3362,-0.3346,-0.3359,-0.3308,-0.3322,-0.327,-0.3279,-0.3249,-0.3277,-0.3278,-0.3263,-0.3254,-0.3266,-0.3267,-0.3265,-0.3257,-0.3237,-0.3236,-0.3235,-0.3235,0,-0.3497,-0.3459,-0.3488,-0.3454,-0.3446,-0.3473,-0.3443,-0.3459,-0.3433,-0.345,-0.3452,-0.3411,-0.3418,-0.3379,-0.338,-0.3359,-0.3401,-0.3384,-0.3406,-0.34,-0.3442,-0.3437,-0.359,-0.3606,-0.3459,-0.346,-0.3462,0,-0.3572,-0.3595,-0.3563,-0.3567,-0.3557,-0.3566,-0.3566,-0.3519,-0.3522,-0.3504,-0.3522,-0.3524,-0.3523,-0.3537,-0.3507,-0.3507,-0.3487,-0.354,-0.3486,-0.3497,-0.3484,-0.3482,-0.3483,-0.3551,-0.3553,-0.3554,-0.3555,0,-0.3708,-0.3687,-0.3689,-0.3684,-0.3686,-0.368,-0.3671,-0.3678,-0.3628,-0.3633,-0.3638,-0.3638,-0.3637,-0.3639,-0.3632,-0.3618,-0.3578,-0.3573,-0.3582,-0.3593,-0.3604,-0.3596,-0.3434,-0.3569,-0.3568,-0.3567,-0.3566,-0.3565,-0.3811,-0.3828,-0.3807,-0.381,-0.3798,-0.379,-0.3802,-0.3777,-0.378,-0.3775,-0.3747,-0.3757,-0.3739,-0.3725,-0.3715,-0.3722,-0.3696,-0.371,-0.3713,-0.3716,-0.3722,-0.3605,-0.3721,-0.372,-0.372,-0.372,-0.3719,0,-0.3942,-0.3924,-0.3928,-0.3916,-0.3918,-0.388,-0.3867,-0.3871,-0.388,-0.3866,-0.3866,-0.3871,-0.3872,-0.3842,-0.3839,-0.385,-0.3832,-0.3851,-0.3848,-0.3845,-0.3747,-0.3738,-0.3866,-0.3866,-0.3866,-0.3866,-0.3866,-0.3866,-0.401,-0.4035,-0.4012,-0.4031,-0.4013,-0.4021,-0.4017,-0.4009,-0.3997,-0.4004,-0.4005,-0.3985,-0.3963,-0.3958,-0.3958,-0.3948,-0.3949,-0.3974,-0.3959,-0.3867,-0.3853,-0.3839,-0.383,-0.3975,-0.3975,-0.4056,-0.4057,-0.4057]},{"header":{"parameterUnit":"m.s-1","parameterCategory":1,"la1":30.2991,"la2":30.254,"lo1":-89.0895,"lo2":-89.0444,"dy":0.0017,"dx":0.0017,"nx":28,"ny":28,"refTime":"2025-03-12T21:00:00:Z","depth":0,"parameterNumber":3,"parameterNumberName":"V-component_of_WINDS"},"data":[0,0,0,0,0,0,0,0,0,0,0,0,0,0,0,0,0,0,0,0,0,0,0,0,0,0,0,0,0,0,0,0,0,0,0,0,0,0,0,0,0,0,0,0,0,0,0,0,0,0,0,0,0,0,0,0,0,0,2.7298,2.7298,0,2.7344,2.7344,2.7345,2.7414,2.7415,2.7416,2.7418,2.7461,2.7461,2.7461,0,0,0,0,0,0,0,0,0,0,0,0,0,2.7267,2.7268,2.7298,2.7298,2.7299,2.7344,2.7344,2.7345,2.7414,2.7415,2.7417,2.7418,2.7461,2.7461,2.7461,0,0,0,0,0,0,0,0,0,0,0,0,0,2.7294,2.7268,2.7298,2.7339,2.7343,2.7343,2.7344,2.7345,2.7413,2.7415,2.7417,2.7419,2.7461,2.7461,2.7461,2.7424,0,0,2.7461,2.7461,0,0,0,0,0,0,0,0,2.7292,2.7295,2.7332,2.7336,2.7341,2.7375,2.735,2.7371,2.7413,2.7387,2.7418,2.742,2.7431,2.7434,2.7438,2.7426,2.7428,2.7461,2.7461,2.7462,2.7462,0,0,0,0,0,0,0,2.729,2.7293,2.7316,2.7333,2.7338,2.7354,2.736,2.7354,2.7398,2.7389,2.7394,2.7399,2.7434,2.7438,2.744,2.7429,2.7461,2.7461,2.7462,2.7462,2.739,2.7388,0,0,0,0,0,0,2.7283,2.7291,2.7314,2.7317,2.732,2.7353,2.736,2.7362,2.7398,2.7405,2.7397,2.7402,2.7437,2.7439,2.7441,2.7401,2.7462,2.7462,2.7462,2.7392,2.739,2.7388,0,0,0,0,0,0,2.7282,2.7284,2.7313,2.7306,2.731,2.7352,2.7354,2.7362,2.7366,2.7404,2.7412,2.7394,2.7438,2.7441,2.7429,2.7404,2.7462,2.7462,2.7394,2.7391,2.7389,2.732,0,0,0,0,0,0,2.728,2.7283,2.727,2.7305,2.7311,2.7299,2.7352,2.7362,2.7367,2.7373,2.7403,2.741,2.744,2.7428,2.7429,2.7405,2.7462,2.7397,2.7393,2.739,2.7324,2.7315,2.7307,0,0,0,0,0,2.7279,2.7248,2.7269,2.7271,2.7295,2.7298,2.7301,2.7338,2.7364,2.7351,2.7376,2.7409,2.7406,2.7426,2.7427,2.7403,2.7399,2.7394,2.739,2.7328,2.7317,2.7307,0,0,0,0,0,0,2.7208,2.7253,2.7277,2.7256,2.7273,2.731,2.7294,2.7324,2.7332,2.7338,2.7382,2.7388,2.737,2.7385,2.7407,2.7369,2.7407,2.7403,2.736,2.7349,2.7341,2.7337,2.7462,0,0,0,0,0,2.719,2.7189,2.7228,2.7206,2.7213,2.7252,2.7255,2.7282,2.73,2.7307,2.7331,2.7346,2.7349,2.735,2.7355,2.7327,2.7335,2.7311,2.7302,2.7294,2.729,2.7277,2.7267,2.7374,2.7374,2.7374,0,0,2.7152,2.7177,2.7173,2.7192,2.7209,2.7206,2.7257,2.7252,2.7251,2.7306,2.7296,2.7313,2.7334,2.7314,2.7306,2.7326,2.7262,2.7289,2.7283,2.7283,2.7272,2.7261,2.7252,2.7371,2.7371,2.7372,0,0,2.7083,2.7101,2.7085,2.7101,2.7125,2.7151,2.7147,2.718,2.7194,2.7185,2.7226,2.7224,2.7228,2.7242,2.7249,2.7185,2.7216,2.7186,2.7139,2.7126,2.7117,2.711,2.7088,2.7079,2.7181,2.7181,2.7181,0,2.7033,2.7032,2.7073,2.7066,2.7073,2.7124,2.7108,2.7121,2.7144,2.7148,2.717,2.7177,2.7194,2.7178,2.7163,2.7167,2.7163,2.7182,2.7116,2.7109,2.7103,2.7082,2.7073,2.7177,2.7178,2.7178,2.7178,0,2.6969,2.6968,2.6952,2.6976,2.6981,2.6969,2.7008,2.7008,2.7035,2.7058,2.7048,2.7071,2.7082,2.708,2.7105,2.7067,2.7079,2.7108,2.7147,2.7088,2.7069,2.7062,2.7172,2.7173,2.7174,2.7175,0,0,2.6856,2.6903,2.6896,2.6908,2.6939,2.6938,2.6929,2.694,2.694,2.6955,2.6948,2.695,2.6978,2.6986,2.7013,2.7001,2.695,2.7032,2.7033,2.7016,2.691,2.6889,2.6879,2.6971,2.697,2.6969,2.6909,0,2.6793,2.6781,2.6818,2.6796,2.6795,2.6844,2.6836,2.6853,2.6875,2.6877,2.6901,2.6903,2.6938,2.6943,2.6934,2.6958,2.693,2.6963,2.6965,2.6964,2.6958,2.6869,2.6847,2.6789,2.6902,2.6901,2.69,0,2.6717,2.673,2.6708,2.6741,2.6742,2.6735,2.6749,2.675,2.6771,2.6788,2.6797,2.683,2.6822,2.686,2.685,2.6872,2.6875,2.6887,2.6886,2.6887,2.6929,2.6869,2.6772,2.6763,2.6889,2.6889,2.689,0,2.6637,2.6648,2.6637,2.6646,2.6684,2.6677,2.6692,2.6715,2.672,2.6732,2.6736,2.6746,2.6752,2.6759,2.6793,2.6817,2.6779,2.6819,2.6793,2.6792,2.6783,2.6783,2.6685,2.6783,2.6784,2.6784,2.6784,0,2.6563,2.6548,2.6602,2.6595,2.658,2.6622,2.6606,2.6626,2.6646,2.6643,2.6685,2.6682,2.6727,2.6728,2.6755,2.6743,2.6745,2.6758,2.6765,2.6755,2.6753,2.6757,2.6762,2.6781,2.6782,2.6782,2.6783,0,2.6471,2.6507,2.6498,2.6535,2.6544,2.6531,2.6563,2.6558,2.6583,2.6579,2.658,2.6619,2.6623,2.6658,2.6668,2.6686,2.6665,2.6679,2.6658,2.6663,2.6635,2.6637,2.6537,2.6526,2.663,2.6629,2.6628,0,2.6422,2.6412,2.6448,2.645,2.6464,2.6466,2.6472,2.6514,2.6518,2.6541,2.6533,2.6541,2.6549,2.6553,2.6581,2.659,2.6606,2.657,2.6607,2.6597,2.6606,2.6606,2.6606,2.6562,2.656,2.6559,2.6558,0,2.633,2.6349,2.6356,2.637,2.6376,2.6388,2.6403,2.6402,2.6447,2.645,2.6455,2.6462,2.6474,2.6481,2.6495,2.651,2.6541,2.6547,2.6541,2.653,2.6519,2.6526,2.6637,2.6549,2.655,2.655,2.6551,2.6551,2.6259,2.6253,2.6278,2.6285,2.6301,2.6314,2.6311,2.6336,2.6342,2.6356,2.638,2.6382,2.6403,2.6426,2.6438,2.644,2.6458,2.645,2.6448,2.6446,2.644,2.6518,2.6442,2.6442,2.6443,2.6443,2.6443,0,2.6171,2.619,2.6196,2.6216,2.6221,2.6252,2.627,2.6272,2.6274,2.6292,2.63,2.6306,2.6313,2.6342,2.6353,2.6348,2.6363,2.635,2.6351,2.6354,2.6422,2.6427,2.6338,2.6338,2.6338,2.6338,2.6338,2.6338,2.6126,2.6117,2.6138,2.6138,2.6157,2.616,2.6168,2.618,2.6195,2.6201,2.6207,2.6227,2.625,2.6262,2.627,2.6278,2.628,2.6262,2.6275,2.6339,2.6349,2.6359,2.6363,2.6262,2.6262,2.6207,2.6206,2.6206]}]]